Location: G�ndlingen
(48.0142°N, 7.6396°E)
Time: 18:03:51
(UTC+00:00)

Cosmos 405 - Pass Details

Date: 05 July 2020
Orbit: 450 x 465 km, 81.3° (Epoch: 13 August)

Event Time Altitude Azimuth Distance (km) Brightness Sun altitude
Rises 23:22:51 0° 352° (N) 2,510 8.3 -19.3°
Reaches altitude 10° 23:24:59 10° 357° (N) 1,627 7.0 -19.3°
Maximum altitude 23:28:29 56° 76° (ENE) 557 3.3 -19.3°
Enters shadow 23:29:04 48° 117° (ESE) 612 3.3 -19.3°
